Showing default

LYNK TOWER 5, 59121

Orbit data source: Space-Track

LYNK TOWER 5, 59121 is a payload satellite owned by Lynk (US) in SSO that was launched on Mon, 04 Mar 2024 UTC via an FALCON 9 launch vehicle from the Air Force Western Test Range (AFWTR). Payload-class satellites include a variety of spacecraft equipped with specific instruments for various scientific and technological missions. These include communications satellites like Starlink; space stations such as the ISS; scientific satellites like the Hubble; Earth observation satellites from companies like Planet Labs, Umbra, and HawkEye 360; GPS; miniature CubeSats for education and research; and military/defense satellites.

Loading next visibility...
Identifier
59121, 2024-043Z
Orbit
SSO
Country
Flag of USUS
Related business
Manufacturer
Lynk
Mission
Operational Commercial Communications
Bus & Motor
LYNK SHANNON, Unknown motor
Mass
~85 kg wet, ~85 kg dry
Launch date (UTC)
2024-03-04 (2 years ago)
Launch vehicle
FALCON 9
Launch site
Air Force Western Test Range (AFWTR)
Object type
Payload
Rocket body
Debris
Shape & HBR
Box, 1.0 m
Radar Cross Section
0.650 m², Medium (>0.1 m² and < 1m²)

Expand to show TLE details & history
Last TLE update: 18 hours ago

TLE from 18 hours ago
0 LYNK TOWER 5
1 59121U 24043Z   26175.12422720  .00005159  00000-0  17592-3 0  9999
2 59121  97.5638 312.7526 0010196 216.4949 143.5598 15.30778500128109
Epoch: 2026-06-24T02:58Z
TLE epoch observation values (Epoch: 2026-06-24T02:58:53.230Z)
Latitude
0.00004°
Longitude
-4.25514°
Altitude
482.212 km
Speed
7.621 km/s
True Right ascension
20h 51m 00s
True Declination
0° 00' 00"
Sunlit
Object was in full shadow at epoch
Visualization orbit readout
Latitude
Unknown
Longitude
Unknown
Altitude
Unknown
Speed
Unknown
Apparent Right ascension
Unknown
Apparent Declination
Unknown
Sunlit
N/A
Visualization observer readout
Local Sidereal Time
08:37:10
Azimuth
Unknown
Elevation
Unknown
Doppler factor
Unknown
Orbital elements
Apogee altitude
477.429 km
Perigee altitude
463.464 km
Semi-major axis
6,848.584 km
Eccentricity
0.00102
Inclination
97.5638°
RAAN
312.7526°
Arg. of periapsis
216.4949°
True anomaly
143.62913°
Mean anomaly
143.5598°
Eccentric anomaly
143.59447°
Mean motion
3.8295 °/min
Orbital period
94.01 mins
BSTAR
0.00017592
Loading maneuver chart data...
Computing Atmospheric mass density...
Loading historical data...
Loading historical data...
Loading historical data...
Loading historical data...
Loading historical data...
Loading historical data...
Loading historical data...

Documentation

Showing up to 5 results
|